,,PA_Meas_PMT16A,,PR_Meas_QMR101_102,,RH_Meas_QMH101,,SR_Meas_QMS101,,TA_Meas_QMH101,,GenWind,,GenWind,
time,status,PA,status,PR,status,RH,status,SR,status,TA,status,DirAvg,status,SpdAvg,
2014-12-22, 00:00:04,VALID,917.056,VALID,0,VALID,97.8542,VALID,0,VALID,19.9188,VALID,357,VALID,0,
2014-12-22, 00:01:04,VALID,917.066,VALID,0,VALID,97.877,VALID,0,VALID,19.9173,VALID,357,VALID,0,
2014-12-22, 00:02:04,VALID,917.08,VALID,0,VALID,97.8694,VALID,0,VALID,19.8783,VALID,4,VALID,0,
2014-12-22, 00:03:04,VALID,917.087,VALID,0,VALID,97.8618,VALID,0,VALID,19.8783,VALID,4,VALID,0,
2014-12-22, 00:04:04,VALID,917.077,VALID,0,VALID,97.8542,VALID,0,VALID,19.9368,VALID,4,VALID,0,
2014-12-22, 00:05:04,VALID,917.074,VALID,0,VALID,97.8542,VALID,0,VALID,19.9758,VALID,4,VALID,0,
2014-12-22, 00:06:04,VALID,917.07,VALID,0,VALID,97.8694,VALID,0,VALID,19.9563,VALID,4,VALID,0,
2014-12-22, 00:07:04,VALID,917.093,VALID,0,VALID,97.8618,VALID,0,VALID,19.9758,VALID,4,VALID,0,
2014-12-22, 00:08:04,VALID,917.093,VALID,0,VALID,97.8999,VALID,0.107441,VALID,19.9563,VALID,358,VALID,0,
2014-12-22, 00:09:04,VALID,917.075,VALID,0,VALID,97.8999,VALID,0.107441,VALID,19.9368,VALID,358,VALID,0,
2014-12-22, 00:10:04,VALID,917.066,VALID,0,VALID,97.8847,VALID,0,VALID,19.9563,VALID,358,VALID,0,
2014-12-22, 00:11:04,VALID,917.07,VALID,0,VALID,97.877,VALID,0,VALID,19.9953,VALID,360,VALID,0,
2014-12-22, 00:12:04,VALID,917.101,VALID,0,VALID,97.9075,VALID,0,VALID,19.9953,VALID,8,VALID,0,
2014-12-22, 00:13:04,VALID,917.079,VALID,0,VALID,97.9228,VALID,0,VALID,19.9758,VALID,340,VALID,1.36133,
2014-12-22, 00:14:04,VALID,917.063,VALID,0,VALID,97.9304,VALID,0,VALID,19.8978,VALID,342,VALID,0.0417969,
2014-12-22, 00:15:04,VALID,917.039,VALID,0.2,VALID,97.938,VALID,0.107441,VALID,19.8783,VALID,341,VALID,0.00429688,
2014-12-22, 00:16:04,VALID,917.042,VALID,0,VALID,97.9075,VALID,0,VALID,19.8783,VALID,306,VALID,0,
2014-12-22, 00:17:04,VALID,917.042,VALID,0,VALID,97.9228,VALID,0,VALID,19.8978,VALID,263,VALID,0,
2014-12-22, 00:18:04,VALID,917.063,VALID,0,VALID,97.8923,VALID,0,VALID,19.9173,VALID,263,VALID,0,
2014-12-22, 00:19:04,VALID,917.044,VALID,0,VALID,97.9152,VALID,0.107441,VALID,19.9563,VALID,264,VALID,0,
2014-12-22, 00:20:04,VALID,917.057,VALID,0,VALID,97.9075,VALID,0,VALID,19.9758,VALID,264,VALID,0,
2014-12-22, 00:21:04,VALID,917.029,VALID,0,VALID,97.8999,VALID,0,VALID,20.0148,VALID,290,VALID,0,
2014-12-22, 00:22:04,VALID,917,VALID,0,VALID,97.9075,VALID,0,VALID,20.0163,VALID,4,VALID,0,
2014-12-22, 00:23:04,VALID,916.989,VALID,0,VALID,97.9456,VALID,0,VALID,20.0163,VALID,10,VALID,0,
2014-12-22, 00:24:04,VALID,916.985,VALID,0,VALID,97.9228,VALID,0,VALID,19.9773,VALID,341,VALID,0,
2014-12-22, 00:25:04,VALID,916.969,VALID,0,VALID,97.9304,VALID,0,VALID,19.9578,VALID,320,VALID,0,
2014-12-22, 00:26:04,VALID,916.952,VALID,0,VALID,97.938,VALID,0,VALID,19.9578,VALID,319,VALID,0,
2014-12-22, 00:27:04,VALID,916.96,VALID,0,VALID,97.9152,VALID,0,VALID,19.9773,VALID,324,VALID,0,
2014-12-22, 00:28:04,VALID,916.952,VALID,0,VALID,97.938,VALID,0,VALID,20.0163,VALID,331,VALID,0,
2014-12-22, 00:29:04,VALID,916.925,VALID,0,VALID,97.938,VALID,0,VALID,20.0163,VALID,331,VALID,0,
2014-12-22, 00:30:04,VALID,916.899,VALID,0,VALID,97.938,VALID,0,VALID,20.0163,VALID,331,VALID,0,
2014-12-22, 00:31:04,VALID,916.9,VALID,0,VALID,97.9456,VALID,0,VALID,20.0163,VALID,355,VALID,0,
2014-12-22, 00:32:04,VALID,916.889,VALID,0,VALID,97.9456,VALID,0,VALID,20.0163,VALID,4,VALID,0,
2014-12-22, 00:33:04,VALID,916.895,VALID,0,VALID,97.9533,VALID,0,VALID,19.9578,VALID,358,VALID,0,
2014-12-22, 00:34:04,VALID,916.854,VALID,0,VALID,97.9533,VALID,0,VALID,19.9578,VALID,357,VALID,0,
2014-12-22, 00:35:04,VALID,916.833,VALID,0,VALID,97.9609,VALID,0,VALID,19.9383,VALID,357,VALID,0,
2014-12-22, 00:36:04,VALID,916.827,VALID,0,VALID,97.9685,VALID,0,VALID,19.8978,VALID,357,VALID,0,
2014-12-22, 00:37:04,VALID,916.795,VALID,0,VALID,97.9456,VALID,0,VALID,19.8978,VALID,358,VALID,0,
2014-12-22, 00:38:04,VALID,916.832,VALID,0,VALID,97.9533,VALID,0,VALID,19.8783,VALID,5,VALID,0,
2014-12-22, 00:39:04,VALID,916.815,VALID,0,VALID,97.9609,VALID,0,VALID,19.8783,VALID,5,VALID,0,
2014-12-22, 00:40:04,VALID,916.778,VALID,0,VALID,97.9456,VALID,0.107441,VALID,19.8978,VALID,22,VALID,0,
2014-12-22, 00:41:04,VALID,916.776,VALID,0,VALID,97.9838,VALID,0,VALID,19.8588,VALID,28,VALID,0,
2014-12-22, 00:42:04,VALID,916.751,VALID,0,VALID,97.9609,VALID,0,VALID,19.9173,VALID,28,VALID,0,
2014-12-22, 00:43:04,VALID,916.763,VALID,0,VALID,97.9533,VALID,0,VALID,19.9173,VALID,29,VALID,0,
2014-12-22, 00:44:04,VALID,916.741,VALID,0,VALID,97.9533,VALID,0,VALID,19.9563,VALID,29,VALID,0,
2014-12-22, 00:45:04,VALID,916.713,VALID,0,VALID,97.9761,VALID,0,VALID,19.8978,VALID,29,VALID,0,
2014-12-22, 00:46:04,VALID,916.73,VALID,0,VALID,97.9838,VALID,0.107441,VALID,19.8573,VALID,29,VALID,0,
2014-12-22, 00:47:04,VALID,916.737,VALID,0,VALID,97.9761,VALID,0,VALID,19.8783,VALID,28,VALID,0,
2014-12-22, 00:48:04,VALID,916.706,VALID,0,VALID,97.9838,VALID,0,VALID,19.8588,VALID,29,VALID,0,
2014-12-22, 00:49:04,VALID,916.708,VALID,0,VALID,97.9761,VALID,0,VALID,19.8783,VALID,28,VALID,0,
2014-12-22, 00:50:04,VALID,916.682,VALID,0,VALID,97.9609,VALID,0,VALID,19.9173,VALID,29,VALID,0,
2014-12-22, 00:51:04,VALID,916.695,VALID,0,VALID,97.9761,VALID,0,VALID,19.9173,VALID,28,VALID,0,
2014-12-22, 00:52:04,VALID,916.69,VALID,0,VALID,97.9838,VALID,0,VALID,19.9173,VALID,28,VALID,0,
2014-12-22, 00:53:04,VALID,916.665,VALID,0,VALID,97.9838,VALID,0,VALID,19.9368,VALID,3,VALID,0,
2014-12-22, 00:54:04,VALID,916.675,VALID,0,VALID,97.9914,VALID,0,VALID,19.9173,VALID,340,VALID,0,
2014-12-22, 00:55:04,VALID,916.671,VALID,0,VALID,97.9914,VALID,0,VALID,19.8978,VALID,340,VALID,0,
2014-12-22, 00:56:04,VALID,916.652,VALID,0,VALID,97.9761,VALID,0,VALID,19.9173,VALID,340,VALID,0,
2014-12-22, 00:57:04,VALID,916.653,VALID,0,VALID,97.9761,VALID,0,VALID,19.9578,VALID,340,VALID,0,
2014-12-22, 00:58:04,VALID,916.602,VALID,0,VALID,97.9914,VALID,0,VALID,19.9368,VALID,340,VALID,0,
2014-12-22, 00:59:04,VALID,916.569,VALID,0,VALID,97.9914,VALID,0,VALID,19.9758,VALID,340,VALID,0,
2014-12-22, 01:00:04,VALID,916.578,VALID,0,VALID,97.9838,VALID,0,VALID,19.9368,VALID,341,VALID,0,
2014-12-22, 01:01:04,VALID,916.575,VALID,0,VALID,97.999,VALID,0,VALID,19.9368,VALID,341,VALID,0,
2014-12-22, 01:02:04,VALID,916.558,VALID,0,VALID,97.999,VALID,0,VALID,19.9368,VALID,341,VALID,0,
2014-12-22, 01:03:04,VALID,916.59,VALID,0,VALID,97.999,VALID,0,VALID,19.9758,VALID,341,VALID,0,
2014-12-22, 01:04:04,VALID,916.552,VALID,0,VALID,97.9914,VALID,0,VALID,19.9368,VALID,341,VALID,0,
2014-12-22, 01:05:04,VALID,916.544,VALID,0.2,VALID,97.999,VALID,0,VALID,19.8978,VALID,341,VALID,0,
2014-12-22, 01:06:04,VALID,916.51,VALID,0,VALID,98.0143,VALID,0,VALID,19.8978,VALID,47,VALID,0,
2014-12-22, 01:07:04,VALID,916.508,VALID,0,VALID,97.9914,VALID,0,VALID,19.8993,VALID,7,VALID,0,
2014-12-22, 01:08:04,VALID,916.523,VALID,0,VALID,97.9914,VALID,0,VALID,19.9173,VALID,4,VALID,0,
2014-12-22, 01:09:04,VALID,916.543,VALID,0,VALID,97.9838,VALID,0,VALID,19.9188,VALID,278,VALID,0,
2014-12-22, 01:10:04,VALID,916.466,VALID,0,VALID,98.0066,VALID,0,VALID,19.8798,VALID,232,VALID,0.589453,
2014-12-22, 01:11:04,VALID,916.463,VALID,0,VALID,98.0448,VALID,0,VALID,19.8393,VALID,296,VALID,1.41406,
2014-12-22, 01:12:04,VALID,916.434,VALID,0,VALID,98.0143,VALID,0,VALID,19.8588,VALID,6,VALID,1.87656,
2014-12-22, 01:13:04,VALID,916.39,VALID,0,VALID,98.0219,VALID,0,VALID,19.8783,VALID,296,VALID,0.126172,
2014-12-22, 01:14:04,VALID,916.44,VALID,0,VALID,98.0143,VALID,0,VALID,19.8993,VALID,155,VALID,0,
2014-12-22, 01:15:04,VALID,916.456,VALID,0,VALID,98.0295,VALID,0,VALID,19.8783,VALID,139,VALID,0,
2014-12-22, 01:16:04,VALID,916.428,VALID,0,VALID,98.0066,VALID,0,VALID,19.9188,VALID,138,VALID,0,
2014-12-22, 01:17:04,VALID,916.423,VALID,0,VALID,98.0066,VALID,0,VALID,19.9188,VALID,176,VALID,0,
2014-12-22, 01:18:04,VALID,916.444,VALID,0,VALID,98.0066,VALID,0,VALID,19.8993,VALID,279,VALID,0.201172,
2014-12-22, 01:19:04,VALID,916.421,VALID,0,VALID,97.9838,VALID,0,VALID,19.8978,VALID,308,VALID,0,
2014-12-22, 01:20:04,VALID,916.414,VALID,0,VALID,97.9609,VALID,0,VALID,19.9368,VALID,308,VALID,0,
2014-12-22, 01:21:04,VALID,916.379,VALID,0,VALID,97.9914,VALID,0,VALID,19.9368,VALID,245,VALID,0,
2014-12-22, 01:22:04,VALID,916.354,VALID,0,VALID,97.9685,VALID,0,VALID,19.9188,VALID,287,VALID,0.263672,
2014-12-22, 01:23:04,VALID,916.321,VALID,0,VALID,97.9685,VALID,0,VALID,19.8783,VALID,244,VALID,0,
2014-12-22, 01:24:04,VALID,916.322,VALID,0,VALID,97.9533,VALID,0,VALID,19.8783,VALID,240,VALID,0,
2014-12-22, 01:25:04,VALID,916.306,VALID,0,VALID,97.9152,VALID,0,VALID,19.8783,VALID,249,VALID,0,
2014-12-22, 01:26:04,VALID,916.306,VALID,0,VALID,97.9228,VALID,0,VALID,19.8588,VALID,249,VALID,0,
2014-12-22, 01:27:04,VALID,916.315,VALID,0,VALID,97.9456,VALID,0,VALID,19.8393,VALID,250,VALID,0,
2014-12-22, 01:28:04,VALID,916.285,VALID,0,VALID,97.9304,VALID,0,VALID,19.8393,VALID,250,VALID,0,
2014-12-22, 01:29:04,VALID,916.257,VALID,0,VALID,97.9075,VALID,0,VALID,19.9188,VALID,250,VALID,0,
2014-12-22, 01:30:04,VALID,916.247,VALID,0,VALID,97.9075,VALID,0.107441,VALID,19.8588,VALID,250,VALID,0,
2014-12-22, 01:31:04,VALID,916.244,VALID,0,VALID,97.8999,VALID,0,VALID,19.8783,VALID,250,VALID,0,
2014-12-22, 01:32:04,VALID,916.267,VALID,0,VALID,97.9228,VALID,0,VALID,19.8798,VALID,250,VALID,0,
2014-12-22, 01:33:04,VALID,916.217,VALID,0.2,VALID,97.9228,VALID,0,VALID,19.8393,VALID,250,VALID,0,
2014-12-22, 01:34:04,VALID,916.234,VALID,0,VALID,97.9152,VALID,0,VALID,19.8393,VALID,250,VALID,0,
2014-12-22, 01:35:04,VALID,916.249,VALID,0,VALID,97.877,VALID,0,VALID,19.8588,VALID,250,VALID,0,
2014-12-22, 01:36:04,VALID,916.212,VALID,0,VALID,97.9152,VALID,0,VALID,19.8588,VALID,303,VALID,0,
2014-12-22, 01:37:04,VALID,916.203,VALID,0,VALID,97.9152,VALID,0,VALID,19.8393,VALID,19,VALID,0,
2014-12-22, 01:38:04,VALID,916.186,VALID,0,VALID,97.8923,VALID,0,VALID,19.8588,VALID,14,VALID,0,
2014-12-22, 01:39:04,VALID,916.181,VALID,0,VALID,97.9075,VALID,0,VALID,19.8588,VALID,12,VALID,0,
2014-12-22, 01:40:04,VALID,916.163,VALID,0,VALID,97.8923,VALID,0,VALID,19.8588,VALID,12,VALID,0,
2014-12-22, 01:41:04,VALID,916.165,VALID,0,VALID,97.9304,VALID,0,VALID,19.8198,VALID,254,VALID,0,
2014-12-22, 01:42:04,VALID,916.133,VALID,0,VALID,97.8923,VALID,0,VALID,19.8408,VALID,339,VALID,0,
2014-12-22, 01:43:04,VALID,916.111,VALID,0,VALID,97.8923,VALID,0,VALID,19.8003,VALID,337,VALID,0.583594,
2014-12-22, 01:44:04,VALID,916.122,VALID,0,VALID,97.8923,VALID,0,VALID,19.8003,VALID,224,VALID,0.36875,
2014-12-22, 01:45:04,VALID,916.13,VALID,0,VALID,97.8923,VALID,0,VALID,19.7808,VALID,279,VALID,0.93125,
2014-12-22, 01:46:04,VALID,916.115,VALID,0.2,VALID,97.8389,VALID,0,VALID,19.8198,VALID,11,VALID,0.210156,
2014-12-22, 01:47:04,VALID,916.106,VALID,0,VALID,97.8694,VALID,0,VALID,19.8003,VALID,357,VALID,0.703516,
2014-12-22, 01:48:04,VALID,916.131,VALID,0,VALID,97.8465,VALID,0,VALID,19.8198,VALID,321,VALID,0.34375,
2014-12-22, 01:49:04,VALID,916.105,VALID,0,VALID,97.8313,VALID,0,VALID,19.8213,VALID,322,VALID,1.51211,
2014-12-22, 01:50:04,VALID,916.1,VALID,0,VALID,97.8237,VALID,0,VALID,19.7613,VALID,315,VALID,1.725,
2014-12-22, 01:51:04,VALID,916.12,VALID,0,VALID,97.8237,VALID,0,VALID,19.7613,VALID,25,VALID,0.39375,
2014-12-22, 01:52:04,VALID,916.086,VALID,0,VALID,97.7932,VALID,0,VALID,19.7613,VALID,322,VALID,0.0546875,
2014-12-22, 01:53:04,VALID,916.081,VALID,0,VALID,97.7856,VALID,0,VALID,19.7823,VALID,278,VALID,0.722656,
2014-12-22, 01:54:04,VALID,916.075,VALID,0.2,VALID,97.7932,VALID,0,VALID,19.7808,VALID,58,VALID,0.757031,
2014-12-22, 01:55:04,VALID,915.988,VALID,0,VALID,97.7856,VALID,0,VALID,19.7628,VALID,132,VALID,0.512109,
2014-12-22, 01:56:04,VALID,916,VALID,0,VALID,97.7779,VALID,0,VALID,19.7613,VALID,197,VALID,0.546875,
2014-12-22, 01:57:04,VALID,916,VALID,0,VALID,97.7627,VALID,0,VALID,19.7808,VALID,241,VALID,0.273438,
2014-12-22, 01:58:04,VALID,916.001,VALID,0,VALID,97.7779,VALID,0,VALID,19.7808,VALID,75,VALID,1.15273,
2014-12-22, 01:59:04,VALID,915.939,VALID,0,VALID,97.7779,VALID,0,VALID,19.7823,VALID,111,VALID,0.374219,
2014-12-22, 02:00:04,VALID,915.936,VALID,0.2,VALID,97.7779,VALID,0,VALID,19.7628,VALID,67,VALID,0.583594,
2014-12-22, 02:01:04,VALID,915.942,VALID,0,VALID,97.7856,VALID,0,VALID,19.7433,VALID,129,VALID,0,
2014-12-22, 02:02:04,VALID,915.798,VALID,0,VALID,97.7932,VALID,0,VALID,19.7223,VALID,12,VALID,0.466406,
2014-12-22, 02:03:04,VALID,915.9,VALID,0.2,VALID,97.7627,VALID,0,VALID,19.7418,VALID,2,VALID,0.794531,
2014-12-22, 02:04:04,VALID,915.874,VALID,0,VALID,97.7779,VALID,0,VALID,19.7628,VALID,307,VALID,0.00117188,
2014-12-22, 02:05:04,VALID,915.902,VALID,0.2,VALID,97.7703,VALID,0,VALID,19.7823,VALID,106,VALID,0,
2014-12-22, 02:06:04,VALID,915.876,VALID,0,VALID,97.7779,VALID,0,VALID,19.7613,VALID,176,VALID,0.0015625,
2014-12-22, 02:07:04,VALID,915.833,VALID,0,VALID,97.8008,VALID,0,VALID,19.7238,VALID,285,VALID,2.18906,
2014-12-22, 02:08:04,VALID,915.849,VALID,0.2,VALID,97.7703,VALID,0,VALID,19.7238,VALID,352,VALID,0.398828,
2014-12-22, 02:09:04,VALID,915.834,VALID,0,VALID,97.7627,VALID,0,VALID,19.7238,VALID,14,VALID,0.0960938,
2014-12-22, 02:10:04,VALID,915.85,VALID,0,VALID,97.7627,VALID,0,VALID,19.7223,VALID,40,VALID,0,
2014-12-22, 02:11:04,VALID,915.828,VALID,0.2,VALID,97.7322,VALID,0,VALID,19.7223,VALID,230,VALID,1.00391,
2014-12-22, 02:12:04,VALID,915.788,VALID,0,VALID,97.7398,VALID,0,VALID,19.7223,VALID,350,VALID,0.955859,
2014-12-22, 02:13:04,VALID,915.761,VALID,0.2,VALID,97.7627,VALID,0,VALID,19.7238,VALID,319,VALID,0.819141,
2014-12-22, 02:14:04,VALID,915.778,VALID,0,VALID,97.7627,VALID,0,VALID,19.7238,VALID,28,VALID,0.954687,
2014-12-22, 02:15:04,VALID,915.74,VALID,0,VALID,97.7703,VALID,0,VALID,19.6833,VALID,313,VALID,0.4625,
2014-12-22, 02:16:04,VALID,915.775,VALID,0.2,VALID,97.7856,VALID,0,VALID,19.6833,VALID,206,VALID,1.01641,
2014-12-22, 02:17:04,VALID,915.763,VALID,0,VALID,97.7932,VALID,0,VALID,19.6638,VALID,173,VALID,0.750391,
2014-12-22, 02:18:04,VALID,915.751,VALID,0,VALID,97.7932,VALID,0.107441,VALID,19.6443,VALID,226,VALID,0.341016,
2014-12-22, 02:19:04,VALID,915.719,VALID,0,VALID,97.7932,VALID,0,VALID,19.6653,VALID,144,VALID,0.815625,
2014-12-22, 02:20:04,VALID,915.72,VALID,0.2,VALID,97.8084,VALID,0,VALID,19.6443,VALID,252,VALID,0.760547,
2014-12-22, 02:21:04,VALID,915.774,VALID,0,VALID,97.816,VALID,0,VALID,19.6263,VALID,300,VALID,2.3168,
2014-12-22, 02:22:04,VALID,915.75,VALID,0,VALID,97.8008,VALID,0,VALID,19.6653,VALID,309,VALID,1.2625,
2014-12-22, 02:23:04,VALID,915.742,VALID,0,VALID,97.8008,VALID,0,VALID,19.6653,VALID,43,VALID,1.99023,
2014-12-22, 02:24:05,VALID,915.733,VALID,0.2,VALID,97.8237,VALID,0,VALID,19.6848,VALID,346,VALID,0.575781,
2014-12-22, 02:25:05,VALID,915.715,VALID,0,VALID,97.8389,VALID,0.107441,VALID,19.6443,VALID,205,VALID,1.01367,
2014-12-22, 02:26:05,VALID,915.704,VALID,0,VALID,97.8389,VALID,0,VALID,19.6248,VALID,241,VALID,1.00703,
2014-12-22, 02:27:05,VALID,915.72,VALID,0,VALID,97.8313,VALID,0,VALID,19.6443,VALID,32,VALID,1.3043,
2014-12-22, 02:28:05,VALID,915.703,VALID,0,VALID,97.8542,VALID,0,VALID,19.6638,VALID,11,VALID,0.238281,
2014-12-22, 02:29:05,VALID,915.731,VALID,0.2,VALID,97.8618,VALID,0.107441,VALID,19.6443,VALID,53,VALID,1.12422,
2014-12-22, 02:30:05,VALID,915.724,VALID,0,VALID,97.8313,VALID,0,VALID,19.6638,VALID,56,VALID,0.608594,
2014-12-22, 02:31:05,VALID,915.718,VALID,0.2,VALID,97.8694,VALID,0,VALID,19.6638,VALID,62,VALID,1.32656,
2014-12-22, 02:32:05,VALID,915.725,VALID,0,VALID,97.8618,VALID,0,VALID,19.6638,VALID,63,VALID,0.735937,
2014-12-22, 02:33:05,VALID,915.646,VALID,0,VALID,97.8694,VALID,0,VALID,19.6638,VALID,91,VALID,1.23711,
2014-12-22, 02:34:05,VALID,915.653,VALID,0.2,VALID,97.8923,VALID,0,VALID,19.6443,VALID,11,VALID,1.58828,
2014-12-22, 02:35:05,VALID,915.624,VALID,0,VALID,97.877,VALID,0,VALID,19.6653,VALID,332,VALID,0.502734,
2014-12-22, 02:36:05,VALID,915.592,VALID,0.2,VALID,97.8847,VALID,0,VALID,19.6458,VALID,273,VALID,1.48398,
2014-12-22, 02:37:05,VALID,915.662,VALID,0.2,VALID,97.877,VALID,0,VALID,19.6458,VALID,221,VALID,1.06641,
2014-12-22, 02:38:05,VALID,915.682,VALID,0,VALID,97.9152,VALID,0,VALID,19.6053,VALID,297,VALID,1.28789,
2014-12-22, 02:39:05,VALID,915.572,VALID,0.2,VALID,97.8999,VALID,0,VALID,19.5873,VALID,289,VALID,1.7043,
2014-12-22, 02:40:05,VALID,915.581,VALID,0.2,VALID,97.8999,VALID,0,VALID,19.5858,VALID,139,VALID,1.02266,
2014-12-22, 02:41:05,VALID,915.589,VALID,0,VALID,97.9075,VALID,0,VALID,19.6068,VALID,246,VALID,1.74961,
2014-12-22, 02:42:05,VALID,915.599,VALID,0.2,VALID,97.8999,VALID,0,VALID,19.5858,VALID,342,VALID,0.676172,
2014-12-22, 02:43:05,VALID,915.534,VALID,0.2,VALID,97.877,VALID,0,VALID,19.6053,VALID,176,VALID,0.1875,
2014-12-22, 02:44:05,VALID,915.493,VALID,0,VALID,97.8999,VALID,0,VALID,19.5858,VALID,225,VALID,1.54102,
2014-12-22, 02:45:05,VALID,915.501,VALID,0.2,VALID,97.9075,VALID,0,VALID,19.6068,VALID,71,VALID,0.874609,
2014-12-22, 02:46:05,VALID,915.46,VALID,0,VALID,97.8847,VALID,0,VALID,19.5663,VALID,273,VALID,1.21953,
2014-12-22, 02:47:05,VALID,915.476,VALID,0.4,VALID,97.877,VALID,0,VALID,19.5468,VALID,252,VALID,0.95625,
2014-12-22, 02:48:05,VALID,915.413,VALID,0,VALID,97.8999,VALID,0,VALID,19.5078,VALID,239,VALID,2.63359,
2014-12-22, 02:49:05,VALID,915.444,VALID,0.4,VALID,97.9075,VALID,0,VALID,19.4883,VALID,283,VALID,1.79258,
2014-12-22, 02:50:05,VALID,915.42,VALID,0.2,VALID,97.8923,VALID,0,VALID,19.4898,VALID,258,VALID,2.5375,
2014-12-22, 02:51:05,VALID,915.43,VALID,0.2,VALID,97.8847,VALID,0,VALID,19.4688,VALID,36,VALID,1.47187,
2014-12-22, 02:52:05,VALID,915.384,VALID,0.4,VALID,97.8694,VALID,0,VALID,19.4703,VALID,182,VALID,1.09961,
2014-12-22, 02:53:05,VALID,915.444,VALID,0,VALID,97.8847,VALID,0.107441,VALID,19.4508,VALID,260,VALID,1.21133,
2014-12-22, 02:54:05,VALID,915.377,VALID,0.2,VALID,97.8847,VALID,0,VALID,19.4118,VALID,345,VALID,2.08633,
2014-12-22, 02:55:05,VALID,915.36,VALID,0.2,VALID,97.8999,VALID,0,VALID,19.3923,VALID,204,VALID,0.916797,
2014-12-22, 02:56:05,VALID,915.369,VALID,0.2,VALID,97.8847,VALID,0,VALID,19.3713,VALID,215,VALID,2.0957,
2014-12-22, 02:57:05,VALID,915.356,VALID,0.2,VALID,97.9075,VALID,0,VALID,19.3323,VALID,265,VALID,1.09336,
2014-12-22, 02:58:05,VALID,915.336,VALID,0.2,VALID,97.8923,VALID,0,VALID,19.3128,VALID,14,VALID,1.20156,
2014-12-22, 02:59:05,VALID,915.358,VALID,0.2,VALID,97.8847,VALID,0,VALID,19.3128,VALID,135,VALID,0.823828,
2014-12-22, 03:00:05,VALID,915.319,VALID,0.2,VALID,97.8923,VALID,0,VALID,19.2738,VALID,244,VALID,1.94727,
2014-12-22, 03:01:05,VALID,915.334,VALID,0.2,VALID,97.8999,VALID,0,VALID,19.2543,VALID,215,VALID,1.12031,
2014-12-22, 03:02:05,VALID,915.374,VALID,0.2,VALID,97.877,VALID,0,VALID,19.3128,VALID,182,VALID,0.806641,
2014-12-22, 03:03:05,VALID,915.375,VALID,0.2,VALID,97.8847,VALID,0,VALID,19.2933,VALID,214,VALID,1.02734,
2014-12-22, 03:04:05,VALID,915.324,VALID,0.2,VALID,97.8847,VALID,0,VALID,19.2948,VALID,229,VALID,0.370313,
2014-12-22, 03:05:05,VALID,915.305,VALID,0,VALID,97.9075,VALID,0,VALID,19.2948,VALID,109,VALID,0.867969,
2014-12-22, 03:06:05,VALID,915.318,VALID,0.2,VALID,97.8999,VALID,0,VALID,19.2738,VALID,240,VALID,1.28789,
2014-12-22, 03:07:05,VALID,915.333,VALID,0.2,VALID,97.8923,VALID,0,VALID,19.2738,VALID,59,VALID,0.938672,
2014-12-22, 03:08:05,VALID,915.336,VALID,0.2,VALID,97.8999,VALID,0,VALID,19.2948,VALID,186,VALID,0.944531,
2014-12-22, 03:09:05,VALID,915.324,VALID,0,VALID,97.9075,VALID,0,VALID,19.2543,VALID,227,VALID,0.621875,
2014-12-22, 03:10:05,VALID,915.358,VALID,0,VALID,97.9304,VALID,0,VALID,19.2543,VALID,223,VALID,0.921094,
2014-12-22, 03:11:05,VALID,915.373,VALID,0.2,VALID,97.9228,VALID,0,VALID,19.2543,VALID,324,VALID,0.776172,
2014-12-22, 03:12:05,VALID,915.388,VALID,0,VALID,97.938,VALID,0,VALID,19.2543,VALID,309,VALID,0.844531,
2014-12-22, 03:13:05,VALID,915.415,VALID,0.2,VALID,97.9304,VALID,0,VALID,19.2738,VALID,131,VALID,0.746094,
2014-12-22, 03:14:05,VALID,915.372,VALID,0,VALID,97.9533,VALID,0,VALID,19.2543,VALID,115,VALID,1.06797,
2014-12-22, 03:15:05,VALID,915.379,VALID,0.2,VALID,97.938,VALID,0,VALID,19.2738,VALID,254,VALID,0.547266,
2014-12-22, 03:16:05,VALID,915.366,VALID,0,VALID,97.9456,VALID,0,VALID,19.3128,VALID,70,VALID,0.235547,
2014-12-22, 03:17:05,VALID,915.361,VALID,0.2,VALID,97.938,VALID,0,VALID,19.3143,VALID,70,VALID,0.191016,
2014-12-22, 03:18:05,VALID,915.388,VALID,0.2,VALID,97.9609,VALID,0,VALID,19.2738,VALID,86,VALID,0.514844,
2014-12-22, 03:19:05,VALID,915.368,VALID,0,VALID,97.9761,VALID,0,VALID,19.2543,VALID,262,VALID,1.76523,
2014-12-22, 03:20:05,VALID,915.362,VALID,0.2,VALID,97.938,VALID,0,VALID,19.2543,VALID,260,VALID,1.56602,
2014-12-22, 03:21:05,VALID,915.343,VALID,0.2,VALID,97.9685,VALID,0,VALID,19.2543,VALID,280,VALID,0.267969,
2014-12-22, 03:22:05,VALID,915.331,VALID,0,VALID,97.9685,VALID,0,VALID,19.2753,VALID,198,VALID,0.903125,
2014-12-22, 03:23:05,VALID,915.328,VALID,0.2,VALID,97.9685,VALID,0,VALID,19.2558,VALID,233,VALID,1.72617,
2014-12-22, 03:24:05,VALID,915.355,VALID,0.2,VALID,97.9838,VALID,0,VALID,19.2558,VALID,232,VALID,1.61836,
2014-12-22, 03:25:05,VALID,915.276,VALID,0.2,VALID,97.9914,VALID,0,VALID,19.2558,VALID,223,VALID,1.48242,
2014-12-22, 03:26:05,VALID,915.323,VALID,0.2,VALID,97.9838,VALID,0,VALID,19.2168,VALID,256,VALID,1.77891,
2014-12-22, 03:27:05,VALID,915.348,VALID,0.2,VALID,97.9838,VALID,0,VALID,19.2168,VALID,241,VALID,0.655859,
2014-12-22, 03:28:05,VALID,915.292,VALID,0.2,VALID,98.0066,VALID,0,VALID,19.1973,VALID,301,VALID,0.875,
2014-12-22, 03:29:05,VALID,915.325,VALID,0,VALID,97.9685,VALID,0,VALID,19.1958,VALID,236,VALID,1.33828,
2014-12-22, 03:30:05,VALID,915.339,VALID,0,VALID,97.999,VALID,0,VALID,19.1958,VALID,256,VALID,1.51836,
2014-12-22, 03:31:05,VALID,915.322,VALID,0.2,VALID,98.0143,VALID,0,VALID,19.1958,VALID,256,VALID,1.72656,
2014-12-22, 03:32:05,VALID,915.345,VALID,0,VALID,97.9914,VALID,0,VALID,19.2168,VALID,334,VALID,2.19023,
2014-12-22, 03:33:05,VALID,915.313,VALID,0,VALID,97.9914,VALID,0,VALID,19.1958,VALID,247,VALID,0.469531,
2014-12-22, 03:34:05,VALID,915.341,VALID,0.2,VALID,98.0143,VALID,0,VALID,19.2363,VALID,211,VALID,0.586719,
2014-12-22, 03:35:05,VALID,915.32,VALID,0,VALID,98.0371,VALID,0,VALID,19.2153,VALID,319,VALID,0.961328,
2014-12-22, 03:36:05,VALID,915.287,VALID,0,VALID,98.0143,VALID,0,VALID,19.2153,VALID,81,VALID,1.12422,
2014-12-22, 03:37:05,VALID,915.366,VALID,0,VALID,98.0143,VALID,0,VALID,19.2153,VALID,57,VALID,0.304688,
2014-12-22, 03:38:05,VALID,915.339,VALID,0,VALID,98.0295,VALID,0,VALID,19.2153,VALID,181,VALID,0.243359,
2014-12-22, 03:39:05,VALID,915.336,VALID,0,VALID,98.0219,VALID,0,VALID,19.2348,VALID,220,VALID,0,
2014-12-22, 03:40:05,VALID,915.329,VALID,0.2,VALID,98.0371,VALID,0,VALID,19.2363,VALID,53,VALID,0,
2014-12-22, 03:41:05,VALID,915.327,VALID,0,VALID,98.0371,VALID,0,VALID,19.2558,VALID,253,VALID,0.747266,
2014-12-22, 03:42:05,VALID,915.3,VALID,0,VALID,98.0219,VALID,0,VALID,19.2558,VALID,211,VALID,0.393359,
2014-12-22, 03:43:05,VALID,915.321,VALID,0,VALID,98.0371,VALID,0,VALID,19.2363,VALID,150,VALID,0.56875,
2014-12-22, 03:44:05,VALID,915.328,VALID,0,VALID,98.0371,VALID,0,VALID,19.2558,VALID,230,VALID,0.920703,
2014-12-22, 03:45:05,VALID,915.321,VALID,0,VALID,98.0295,VALID,0,VALID,19.2348,VALID,248,VALID,0.158984,
2014-12-22, 03:46:05,VALID,915.296,VALID,0,VALID,98.0448,VALID,0,VALID,19.2753,VALID,154,VALID,0.724609,
2014-12-22, 03:47:05,VALID,915.267,VALID,0,VALID,98.0219,VALID,0,VALID,19.2753,VALID,189,VALID,0.146875,
2014-12-22, 03:48:05,VALID,915.25,VALID,0,VALID,98.06,VALID,0,VALID,19.2948,VALID,32,VALID,0.566406,
2014-12-22, 03:49:05,VALID,915.257,VALID,0.2,VALID,98.06,VALID,0,VALID,19.2753,VALID,32,VALID,0.0417969,
2014-12-22, 03:50:05,VALID,915.278,VALID,0,VALID,98.0524,VALID,0,VALID,19.2948,VALID,33,VALID,0,